Погода в Долны Кубине

Словакия     49˚12′51″N   19˚18′01″E
темп.,
°C
ветер,
м/с
пор.,
м/с
влажн.,
%
обл.,
%
осадки,
мм/ч
давл.,
гПа
погр.,
м
16 января, сб
сб1601:00−9˚сз1296100 0.6 102188
04:00−10˚ссв1296100 0.4 102132
07:00−11˚сз119794 0.6 102122
10:00−8˚зсз1288100 0.3 1021270
13:00−7˚зсз2581100 0.7 1020791
16:00−8˚зсз1393100 0.1 1019142
19:00−10˚с1196100 0.3 101826
22:00−10˚зюз2396100 0.4 1017125
17 января, вс
вс1701:00−10˚зюз2395100 1.2 1016197
04:00−10˚зюз2395100 1.2 1015275
07:00−11˚сз1297100 1.8 101741
10:00−10˚сз127866 0.1 1018560
13:00−9˚ссв117364 0.1 1019652
16:00−12˚св129292 0.0 102021
19:00−16˚св119655 0.0 102220
22:00−16˚юв009514 0.0 102320
18 января, пн
пн1801:00−17˚з00947 0.0 102420
04:00−17˚юз119326 0.0 102420
07:00−16˚зсз018959 0.0 102520
10:00−10˚юз1177100 0.0 1025127
13:00−7˚зюз226888 0.0 1023303
16:00−10˚зюз128838 0.0 102321
19:00−10˚юз129064 0.0 102435
22:00−9˚юз1196100 0.4 102463
19 января, вт
вт1901:00−9˚зюз1297100 0.8 102442
04:00−8˚юз129798 0.4 102361
07:00−8˚юз129799 0.7 102425
10:00−5˚юз239498 0.2 1024191
13:00−3˚юз249199 0.3 1023382
16:00−4˚ююз2494100 0.0 1022220
19:00−5˚ююз3495100 0.1 1022151
22:00−5˚ю3596100 1.3 1021241
20 января, ср
ср2001:00−5˚ю2497100 2.7 1020189
04:00−5˚ююз2397100 0.8 1019134
07:00−4˚ю2395100 0.9 1019105
10:00−1˚ю2393100 0.0 1018147
13:00+2˚ю249293 0.0 1017262
16:00−2˚ю339396 0.0 101794
19:00−6˚ююв349798 0.0 1017102
22:00−3˚ююв239693 0.0 101665